STARLINK-33534, 63499

Orbit data source: Space-Track

STARLINK-33534, 63499 is a payload satellite owned by SpaceX/Seattle (US) in LEO that was launched on Mon, 07 Apr 2025 UTC via an FALCON 9 launch vehicle from the Air Force Western Test Range (AFWTR). Payload-class satellites include a variety of spacecraft equipped with specific instruments for various scientific and technological missions. These include communications satellites like Starlink; space stations such as the ISS; scientific satellites like the Hubble; Earth observation satellites from companies like Planet Labs, Umbra, and HawkEye 360; GPS; miniature CubeSats for education and research; and military/defense satellites.

Loading next visibility...
Identifier
63499, 2025-071G
Orbit
LEO
Country
Flag of USUS
Related business
Manufacturer
SpaceX/Seattle
Mission
Operational Commercial Communications
Bus & Motor
STARLINK V2MO, Unknown motor
Mass
575 kg wet, ~530 kg dry
Launch date (UTC)
2025-04-07 (1 year ago)
Launch vehicle
FALCON 9
Launch site
Air Force Western Test Range (AFWTR)
Object type
Payload
Rocket body
Debris
Shape & HBR
Box + 1 Pan, 17.7 m
Radar Cross Section
41.120 m², Large (>1 m²)

Expand to show TLE details & history
Last TLE update: 14 hours ago

TLE from 14 hours ago
0 STARLINK-33534
1 63499U 25071G   26262.88981420  .00001295  00000-0  53471-4 0  9995
2 63499  53.1600 316.4065 0001308  82.5170 277.5980 15.31710190 82509
Epoch: 2026-09-19T21:21Z
TLE epoch observation values (Epoch: 2026-09-19T21:21:19.946Z)
Latitude
-0.00004°
Longitude
-2.71851°
Altitude
471.492 km
Speed
7.632 km/s
True Right ascension
21h 05m 37s
True Declination
0° 00' 00"
Sunlit
Object was in full shadow at epoch
Visualization orbit readout
Latitude
Unknown
Longitude
Unknown
Altitude
Unknown
Speed
Unknown
Apparent Right ascension
Unknown
Apparent Declination
Unknown
Sunlit
N/A
Visualization observer readout
Local Sidereal Time
03:48:39
Azimuth
Unknown
Elevation
Unknown
Doppler factor
Unknown
Orbital elements
Apogee altitude
471.862 km
Perigee altitude
470.07 km
Semi-major axis
6,849.103 km
Eccentricity
0.00013
Inclination
53.16°
RAAN
316.4065°
Arg. of periapsis
82.517°
True anomaly
277.58314°
Mean anomaly
277.598°
Eccentric anomaly
277.59057°
Mean motion
3.82906 °/min
Orbital period
94.02 mins
BSTAR
0.000053471
Loading maneuver chart data...
Computing Atmospheric mass density...
Loading historical data...
Loading historical data...
Loading historical data...
Loading historical data...
Loading historical data...
Loading historical data...
Loading historical data...

Documentation

Showing up to 5 results
|